User: anonymous   Login
Location: Beugnon
(47.6222°N, 3.7850°E)
Time: 15:18:43
(UTC+00:00)
Language:

Cosmos 1023 Rocket - Orbit

View from above orbital plane
View from above orbital plane
View from above satellite
View from above satellite

Ground track
Ground track

The orbit data is extracted from the following two-line orbital elements,

1 10962U 78063B   21162.87871223  .00000049  00000-0  23317-4 0  9995
2 10962  74.0811  51.3162 0026019 297.7868  62.0650 14.41242901255575
Epoch (UTC): 11 June 2021 21:05:20
Eccentricity: 0.0026019
inclination: 74.0811°
perigee height: 736 km
apogee height: 773 km
right ascension of ascending node: 51.3162°
argument of perigee: 297.7868°
revolutions per day: 14.41242901
mean anomaly at epoch: 62.0650°
orbit number at epoch: 25557

The dashed part of the orbit path shows where the satellite is in the earth's shadow,  

DLR